OBJECT E, 64052

Orbit data source: Space-Track

You're viewing an Uncataloged Satellite

Recently launched and/or uncataloged satellites may have evolving metadata. Metadata may include but not limited to: Owner, Maufacturer, Bus, Motor, and Mission.

OBJECT E, 64052 is a Chinese satellite in SSO that was launched on Sat, 17 May 2025 UTC via a ZHUQUE-2E launch vehicle from the Jiuquan Satellite Launch Center, China (JSC). Unknown objects in Earth's orbit typically refer to objects detected orbiting the Earth but have not yet been identified or cataloged. These objects could be anything from previously untracked satellites, spent rocket stages, debris from satellite collisions, or even natural meteoroids temporarily captured by Earth's gravity.

Loading next visibility...
Identifier
64052, 2025-103E
Orbit
SSO
Last TLE update
6 hours ago
Origin
Flag of CNCTYK/YOUD (CN / PRC)
Manufacturer
Changsha Tianyi
Mission
Operational Commercial Technology
Bus & Motor
TY, Unknown motor
Mass
~50 kg wet, ~50 kg dry
Launch date (UTC)
2025-05-17 (2 months ago)
Launch vehicle
ZHUQUE-2E
Launch site
Jiuquan Satellite Launch Center, China (JSC)
Object type
Unknown
Shape & HBR
Box + 2 Pan, 0.5 m
Radar Cross Section
0.255 m², Medium (>0.1 m² and < 1m²)

Expand to show TLE details & history

TLE from 6 hours ago
0 OBJECT E
1 64052U 25103E   25211.56740666  .00008376  00000-0  43987-3 0  9997
2 64052  97.4128 285.4467 0002992 188.6807 171.4375 15.15953878 11255
Epoch: 2025-07-30T13:37Z
TLE epoch observation values (Epoch: 2025-07-30T13:37:03.935Z)
Latitude
0.00001°
Longitude
132.73552°
Altitude
523.21 km
Speed
7.6 km/s
True Right ascension
19h 01m 47s
True Declination
0° 00' 00"
Sunlit
Object was in full shadow at epoch
Visualization orbit readout
Latitude
-41.43674°
Longitude
139.54454°
Altitude
535.372 km
Speed
7.593 km/s
Apparent Right ascension
20h 23m 09s
Apparent Declination
-41° 22' 19"
Sunlit
Object is in full shadow
Visualization observer readout
Local Sidereal Time
09:20:33
Azimuth
102.264° ESE
Elevation
-79.025°
Doppler factor
1
Orbital elements
Apogee altitude
517.118 km
Perigee altitude
512.993 km
Semi-major axis
6,893.193 km
Eccentricity
0.0003
Inclination
97.4128°
RAAN
285.4467°
Arg. of periapsis
188.6807°
True anomaly
171.4426°
Mean anomaly
171.4375°
Eccentric anomaly
171.44005°
Mean motion
3.79239 °/min
Orbital period
94.93 mins
BSTAR
0.00043987
Loading maneuver chart data...
Loading SW <> Apogee altitude chart data...
Loading historical data...
Loading historical data...
Loading historical data...
Loading historical data...
Loading historical data...
Loading historical data...
Loading historical data...
|